DateTimeUTC,F1_A11,F1_S11,BsB_S11,BsG_S11,BsR_S11,BbsB_S11,BbsG_S11,BbsR_S11,BaB_A11,BaG_A11,BaR_A11,Tu_S11,T_S11,Uu_S11,U_S11,P_S11,T1_A11
2021-02-09T22:00:00Z,00000200,21000000,,,,,,,-000.01,0000.09,-000.42,15.5,23.0,,00.0,0650.7,30.9
2021-02-09T22:01:00Z,00000200,21000000,,,,,,,-000.66,-000.23,-000.24,15.5,23.0,,00.0,0650.7,30.9
2021-02-09T22:02:00Z,00000200,21000000,,,,,,,0000.07,-000.43,-000.04,15.5,23.0,,00.0,0650.7,30.9
2021-02-09T22:03:00Z,00000200,61000000,,,,,,,0000.11,0000.55,0000.29,15.5,23.0,,00.0,0650.7,30.9
2021-02-09T22:04:00Z,00000200,41000000,0000.98,0000.69,0000.49,0000.61,0000.31,0000.12,0000.29,0000.25,0000.25,15.5,22.7,,00.0,0651.5,30.9
2021-02-09T22:05:00Z,00000200,01000000,0001.24,0000.68,0000.44,0000.23,0000.23,-000.07,0000.83,0000.37,0000.22,15.5,22.6,,00.0,0651.5,30.9
2021-02-09T22:06:00Z,00000200,01000000,0000.96,0000.89,0000.31,0000.18,0000.28,0000.23,0000.38,0000.11,0000.19,15.5,22.6,,00.0,0651.5,30.9
2021-02-09T22:07:00Z,00000200,01000000,0000.75,0001.02,0000.60,-000.33,0000.14,0000.13,0000.50,0000.83,0000.47,15.5,22.6,,00.0,0651.5,30.9
2021-02-09T22:08:00Z,00000200,01000000,0001.17,0001.07,0000.62,0000.31,0000.22,-000.01,0000.44,0000.24,0000.54,15.5,22.6,,00.0,0651.5,30.9
2021-02-09T22:09:00Z,00000200,01000000,0001.15,0000.66,0000.59,0000.75,0000.09,0000.20,0000.57,0000.56,0000.24,15.6,22.6,,00.0,0651.6,30.9
2021-02-09T22:10:00Z,00000200,01000000,0000.84,0000.70,0000.47,0000.09,0000.40,0000.14,0000.63,0000.28,0000.43,15.7,22.6,,00.0,0651.6,30.9
2021-02-09T22:11:00Z,00000200,01000000,0001.26,0000.90,0000.49,0000.22,0000.17,0000.04,0000.50,0000.63,0000.10,15.8,22.7,,00.0,0651.6,30.9
2021-02-09T22:12:00Z,00000200,01000000,0000.98,0000.44,0000.41,0000.26,0000.32,0000.13,-000.03,0000.14,0000.35,15.8,22.7,,00.0,0651.7,30.9
2021-02-09T22:13:00Z,00000200,01000000,0000.64,0000.57,0000.56,-000.25,0000.17,0000.07,0000.29,0000.34,-000.00,15.9,22.7,,00.0,0651.8,30.9
2021-02-09T22:14:00Z,00000200,01000000,0001.38,0000.74,0000.57,0000.37,0000.10,0000.27,0000.18,-000.04,0000.08,15.9,22.8,,00.0,0651.8,30.9
2021-02-09T22:15:00Z,00000200,01000000,0001.51,0000.80,0000.41,0000.64,0000.26,0000.05,0000.12,-000.02,0000.16,16.0,22.8,,00.0,0651.8,30.9
2021-02-09T22:16:00Z,00000200,01000000,0001.13,0000.94,0000.28,0000.44,0000.08,0000.08,0000.02,0000.46,-000.05,16.0,22.8,,00.0,0651.8,30.9
2021-02-09T22:17:00Z,00000200,01000000,0001.42,0000.95,0000.57,0000.68,0000.19,0000.14,0000.46,0000.18,0000.11,16.0,22.8,,00.0,0651.7,30.9
2021-02-09T22:18:00Z,00000200,01000000,0001.57,0000.96,0000.56,0000.57,0000.07,0000.26,0000.32,0000.22,0000.36,15.9,22.8,,00.0,0651.7,30.9
2021-02-09T22:19:00Z,00000200,01000000,0001.74,0000.61,0000.77,0000.16,0000.40,-000.13,0000.77,0000.44,0000.03,15.9,22.7,,00.0,0651.6,30.9
2021-02-09T22:20:00Z,00000200,01000000,0001.71,0000.87,0000.54,0000.24,-000.13,0000.03,0000.30,0000.42,0000.56,15.8,22.7,,00.0,0651.6,30.9
2021-02-09T22:21:00Z,00000200,01000000,0001.46,0000.77,0000.99,-000.09,0000.02,0000.16,0000.68,0000.42,0000.34,15.7,22.7,,00.0,0651.6,30.9
2021-02-09T22:22:00Z,00000200,01000000,0001.34,0001.13,0000.80,-000.26,-000.03,0000.10,0000.66,0000.88,0000.66,15.8,22.7,,00.0,0651.6,30.9
2021-02-09T22:23:00Z,00000200,01000000,0001.10,0000.76,0000.44,0000.04,0000.16,0000.24,0000.90,0000.45,0000.57,15.8,22.7,,00.0,0651.6,30.9
2021-02-09T22:24:00Z,00000200,01000000,0001.36,0000.61,0000.34,0000.45,0000.09,0000.13,0000.70,0000.85,0000.68,15.9,22.7,,00.0,0651.6,30.9
2021-02-09T22:25:00Z,00000200,01000000,0001.20,0000.87,0000.54,0000.21,0000.25,0000.18,0000.66,0000.63,0000.23,15.9,22.7,,00.0,0651.6,30.9
2021-02-09T22:26:00Z,00000200,01000000,0000.40,0000.81,0000.45,0000.31,0000.42,0000.14,0000.44,0000.68,0000.46,16.0,22.8,,00.0,0651.6,30.9
2021-02-09T22:27:00Z,00000200,01000000,0001.44,0001.12,0000.49,0000.67,0000.18,0000.22,0000.59,0000.19,0000.17,16.0,22.8,,00.0,0651.6,30.9
2021-02-09T22:28:00Z,00000200,01000000,0001.92,0001.28,0000.81,0000.27,0000.12,-000.03,0000.52,0000.41,0000.26,16.1,22.8,,00.0,0651.5,30.9
2021-02-09T22:29:00Z,00000200,01000000,0001.32,0001.15,0000.72,-000.01,0000.18,0000.19,0000.27,0000.36,0000.22,16.1,22.8,,00.0,0651.5,30.9
2021-02-09T22:30:00Z,00000200,01000000,0001.94,0001.06,0000.74,-000.11,0000.23,0000.35,0000.54,0000.77,0000.46,16.1,22.8,,00.0,0651.5,30.9
2021-02-09T22:31:00Z,00000200,01000000,0001.80,0001.33,0000.47,0001.04,0000.25,0000.04,0000.35,0000.17,0000.36,16.0,22.8,,00.0,0651.5,30.9
2021-02-09T22:32:00Z,00000200,01000000,0002.09,0001.23,0000.79,0000.36,0000.21,-000.01,0000.50,0000.55,0000.10,16.0,22.8,,00.0,0651.4,30.9
2021-02-09T22:33:00Z,00000200,01000000,0002.03,0001.60,0000.72,0000.28,0000.16,0000.09,0000.62,0000.36,0000.58,15.9,22.8,,00.0,0651.4,30.9
2021-02-09T22:34:00Z,00000200,01000000,0001.59,0001.52,0000.53,0000.10,0000.22,0000.04,0000.52,0000.61,0000.13,15.8,22.7,,00.0,0651.4,30.9
2021-02-09T22:35:00Z,00000200,01000000,0000.85,0001.22,0000.54,0000.12,0000.14,0000.02,0000.63,0000.32,0000.40,15.8,22.7,,00.0,0651.4,30.9
2021-02-09T22:36:00Z,00000200,01000000,0000.84,0001.15,0000.84,0000.18,0000.26,0000.11,0000.53,0000.45,0000.20,15.7,22.7,,00.0,0651.4,30.9
2021-02-09T22:37:00Z,00000200,01000000,0001.83,0001.05,0000.51,0000.42,0000.15,0000.12,0000.62,0000.45,0000.15,15.8,22.6,,00.0,0651.3,30.9
2021-02-09T22:38:00Z,00000200,01000000,0001.87,0001.07,0000.55,-000.14,0000.08,0000.41,0000.25,0000.73,0000.73,15.8,22.6,,00.0,0651.4,30.9
2021-02-09T22:39:00Z,00000200,01000000,0000.54,0001.24,0000.38,0000.54,0000.23,0000.36,0000.86,0000.30,0000.19,15.8,22.7,,00.0,0651.4,30.9
2021-02-09T22:40:00Z,00000200,01000000,0001.68,0001.04,0000.65,0000.19,0000.08,0000.24,0000.37,0000.83,0000.90,15.9,22.7,,00.0,0651.4,30.9
2021-02-09T22:41:00Z,00000200,01000000,0001.77,0000.52,0000.50,0000.43,0000.34,0000.02,0001.82,0001.28,0000.60,16.0,22.8,,00.0,0651.4,30.9
2021-02-09T22:42:00Z,00000200,01000000,0003.20,0002.29,0001.36,0000.98,0000.36,0000.36,0020.73,0018.76,0014.49,16.0,22.8,,00.0,0651.4,30.9
2021-02-09T22:43:00Z,00000200,01000000,0003.46,0001.58,0000.95,0000.81,0000.39,0000.01,0022.84,0020.74,0016.00,16.1,22.8,,00.0,0651.4,30.9
2021-02-09T22:44:00Z,00000200,01000000,0002.39,0001.73,0000.83,0000.02,0000.35,0000.02,0013.52,0012.44,0009.46,16.1,22.8,,00.0,0651.4,30.9
2021-02-09T22:45:00Z,00000200,01000000,0001.36,0001.52,0000.81,0000.28,0000.31,-000.04,0006.79,0005.97,0004.57,16.0,22.8,,00.0,0651.4,30.9
2021-02-09T22:46:00Z,00000200,01000000,0002.27,0002.10,0001.06,0000.12,0000.79,0000.21,0013.77,0012.59,0009.37,16.0,22.8,,00.0,0651.4,30.9
2021-02-09T22:47:00Z,00000200,01000000,0002.89,0001.76,0001.13,0000.59,0000.42,0000.30,0022.14,0019.83,0015.13,15.9,22.8,,00.0,0651.4,30.9
2021-02-09T22:48:00Z,00000200,01000000,0002.17,0001.40,0000.84,0000.66,0000.43,-000.17,0016.83,0015.48,0012.09,15.8,22.7,,00.0,0651.3,30.9
2021-02-09T22:49:00Z,00000200,01000000,0001.82,0001.08,0000.95,0000.86,0000.12,0000.12,0003.71,0003.68,0002.63,15.8,22.7,,00.0,0651.3,30.9
2021-02-09T22:50:00Z,00000200,01000000,0001.01,0001.27,0000.67,0000.17,0000.24,0000.19,0001.42,0000.72,0000.90,15.7,22.7,,00.0,0651.3,30.9
2021-02-09T22:51:00Z,00000200,01000000,0002.41,0001.43,0000.55,0000.70,0000.25,0000.05,0000.72,0000.74,0000.16,15.7,22.6,,00.0,0651.3,30.9
2021-02-09T22:52:00Z,00000200,01000000,0000.90,0001.36,0000.67,-000.18,0000.16,0000.11,0000.84,0000.60,0000.91,15.7,22.6,,00.0,0651.2,30.9
2021-02-09T22:53:00Z,00000200,01000000,0001.70,0001.18,0000.42,0000.08,0000.17,0000.00,0000.90,0000.50,0000.62,15.8,22.6,,00.0,0651.2,30.9
2021-02-09T22:54:00Z,00000200,01000000,0001.50,0001.32,0000.48,0000.27,0000.34,0000.07,0000.55,0000.93,0000.35,15.8,22.7,,00.0,0651.2,30.9
2021-02-09T22:55:00Z,00000200,01000000,0001.51,0000.72,0000.76,0000.16,0000.20,0000.29,0000.71,0000.36,0000.44,15.9,22.7,,00.0,0651.2,30.9
2021-02-09T22:56:00Z,00000200,01000000,0001.38,0000.87,0000.52,0000.35,0000.04,0000.08,0000.27,0000.69,0000.60,15.9,22.7,,00.0,0651.2,30.9
2021-02-09T22:57:00Z,00000200,41000000,,,,,,,0000.41,0000.43,-000.20,16.0,22.8,,00.0,0651.3,30.9
2021-02-09T22:58:00Z,00000200,61000000,,,,,,,0000.11,-000.24,-000.10,15.6,22.9,,00.0,0650.3,30.9
2021-02-09T22:59:00Z,00000200,21000000,,,,,,,-000.67,-000.49,-000.20,15.6,23.0,,00.0,0650.3,30.9
